Weather History for Robstown, TX

Change the Weather History Date:

Friday, October 12, 2012

  Actual Average (KCRP) Record (KCRP)
Temperature  
Mean Temperature 81 °F 76 °F  
Max Temperature 91 °F 85 °F 97 °F (1991)
Min Temperature 72 °F 66 °F 50 °F (1977)
Degree Days  
Heating Degree Days 0 0  
Month to date heating degree days 0  
Since 1 July heating degree days 0  
Cooling Degree Days 16 11  
Month to date cooling degree days 143  
Year to date cooling degree days 3186  
Growing Degree Days 31 (Base 50)    
Moisture  
Dew Point 73 °F    
Average Humidity 80    
Maximum Humidity 95    
Minimum Humidity 57    
Precipitation  
Precipitation 0.00 in 0.12 in 2.40 in (1973)
Month to date precipitation 1.44  
Year to date precipitation 25.76  
Snow  
Snow 0.00 in - - ()
Month to date snowfall  
Since 1 July snowfall  
Since 1 September snowfall  
Snow Depth -    
Sea Level Pressure  
Sea Level Pressure 30.08 in    
Wind  
Wind Speed 10 mph (SE)    
Max Wind Speed 22 mph    
Max Gust Speed 26 mph    
Visibility 10 miles    
Events      
T = Trace of Precipitation, MM = Missing Value Source: NWS Daily Summary

Daily Weather History Graph

Daily Weather History Graph

Search for Another Location

Airport:

Trip Planner

Search our weather history database for the weather conditions in past years. The results will help you decide how hot, cold, wet, or windy it might be!

Date:

Astronomy

Oct. 12, 2012 Rise Set
Actual Time 7:29 AM CDT 7:04 PM CDT
Civil Twilight 7:06 AM CDT 7:27 PM CDT
Nautical Twilight 6:38 AM CDT 7:54 PM CDT
Astronomical Twilight 6:11 AM CDT 8:21 PM CDT
Moon 4:28 AM CDT (10/12) 5:03 PM CDT (10/12)
Length of Visible Light 12h 21m
Length of Day
11h 34m
Waning Crescent, 10% of the Moon is Illuminated
Oct 12
Waning Crescent
Oct 15
New
Oct 21
First Quarter
Oct 29
Full
Nov 6
Last Quarter

Hourly Weather History & Observations

Time (CDT) Temp. Heat Index Dew Point Humidity Pressure Visibility Wind Dir Wind Speed Gust Speed Precip Events Conditions
12:15 AM 76.5 °F - 72.7 °F 88% 30.09 in 10.0 mi ESE 6.9 mph - N/A   Clear
12:35 AM 76.3 °F - 72.7 °F 89% 30.09 in 10.0 mi SE 6.9 mph - N/A   Clear
12:55 AM 76.1 °F - 72.5 °F 89% 30.09 in 10.0 mi SE 6.9 mph - N/A   Clear
1:15 AM 75.4 °F - 72.5 °F 91% 30.08 in 10.0 mi SE 6.9 mph - N/A   Clear
1:35 AM 75.2 °F - 72.3 °F 91% 30.08 in 10.0 mi SE 5.8 mph - N/A   Clear
1:55 AM 74.8 °F - 72.1 °F 91% 30.08 in 10.0 mi SE 6.9 mph - N/A   Clear
2:15 AM 75.2 °F - 72.1 °F 90% 30.08 in 10.0 mi SE 5.8 mph - N/A   Clear
2:35 AM 74.7 °F - 72.0 °F 91% 30.08 in 10.0 mi SE 5.8 mph - N/A   Clear
2:55 AM 74.5 °F - 71.8 °F 91% 30.08 in 10.0 mi ESE 5.8 mph - N/A   Clear
3:15 AM 73.9 °F - 71.6 °F 92% 30.07 in 10.0 mi ESE 4.6 mph - N/A   Clear
3:35 AM 73.6 °F - 71.2 °F 92% 30.07 in 10.0 mi ESE 5.8 mph - N/A   Clear
3:55 AM 73.6 °F - 71.4 °F 93% 30.07 in 10.0 mi ESE 5.8 mph - N/A   Clear
4:15 AM 73.4 °F - 71.2 °F 93% 30.06 in 10.0 mi ESE 5.8 mph - N/A   Clear
4:35 AM 73.4 °F - 71.2 °F 93% 30.06 in 7.0 mi ESE 5.8 mph - N/A   Clear
4:55 AM 73.0 °F - 71.1 °F 93% 30.07 in 7.0 mi ESE 4.6 mph - N/A   Clear
5:15 AM 72.9 °F - 70.9 °F 93% 30.07 in 10.0 mi ESE 4.6 mph - N/A   Clear
5:35 AM 72.9 °F - 70.9 °F 93% 30.07 in 10.0 mi East 5.8 mph - N/A   Clear
5:55 AM 72.9 °F - 70.9 °F 93% 30.08 in 10.0 mi East 5.8 mph - N/A   Clear
6:15 AM 73.4 °F - 71.4 °F 93% 30.08 in 7.0 mi East 5.8 mph - N/A   Clear
6:35 AM 73.6 °F - 71.8 °F 94% 30.09 in 7.0 mi East 5.8 mph - N/A   Clear
6:55 AM 74.3 °F - 72.1 °F 93% 30.09 in 10.0 mi ESE 5.8 mph - N/A   Clear
7:15 AM 74.3 °F - 72.5 °F 94% 30.10 in 7.0 mi ESE 4.6 mph - N/A   Clear
7:35 AM 73.9 °F - 72.1 °F 94% 30.10 in 7.0 mi ESE 5.8 mph - N/A   Clear
7:55 AM 74.3 °F - 72.7 °F 95% 30.11 in 5.0 mi ESE 4.6 mph - N/A   Clear
8:15 AM 76.1 °F - 74.3 °F 94% 30.12 in 7.0 mi East 4.6 mph - N/A   Clear
8:55 AM 79.0 °F - 75.2 °F 88% 30.12 in 10.0 mi ESE 8.1 mph - N/A   Clear
9:15 AM 81.5 °F 88.3 °F 75.9 °F 83% 30.13 in 10.0 mi SE 8.1 mph - N/A   Clear
9:55 AM 84.4 °F 93.5 °F 75.9 °F 76% 30.13 in 10.0 mi SE 15.0 mph - N/A   Scattered Clouds
10:15 AM 85.3 °F 94.6 °F 75.6 °F 73% 30.13 in 10.0 mi SE 16.1 mph 19.6 mph N/A   Mostly Cloudy
10:35 AM 85.8 °F 94.6 °F 75.0 °F 70% 30.13 in 10.0 mi SE 16.1 mph 20.7 mph N/A   Mostly Cloudy
10:55 AM 86.9 °F 95.9 °F 74.8 °F 67% 30.13 in 10.0 mi SE 15.0 mph - N/A   Mostly Cloudy
11:15 AM 87.3 °F 96.8 °F 75.2 °F 67% 30.13 in 10.0 mi SE 13.8 mph - N/A   Mostly Cloudy
11:55 AM 89.2 °F 99.0 °F 74.7 °F 62% 30.12 in 10.0 mi SE 16.1 mph - N/A   Mostly Cloudy
12:15 PM 88.0 °F 96.5 °F 73.9 °F 63% 30.11 in 10.0 mi SE 13.8 mph 21.9 mph N/A   Mostly Cloudy
12:35 PM 88.7 °F 97.7 °F 74.1 °F 62% 30.11 in 10.0 mi SE 15.0 mph 20.7 mph N/A   Overcast
12:55 PM 88.2 °F 96.9 °F 74.3 °F 63% 30.10 in 10.0 mi ESE 18.4 mph 23.0 mph N/A   Mostly Cloudy
1:35 PM 89.8 °F 98.6 °F 73.6 °F 59% 30.08 in 10.0 mi SSE 19.6 mph 25.3 mph N/A   Mostly Cloudy
1:55 PM 89.1 °F 97.0 °F 73.0 °F 59% 30.07 in 10.0 mi SSE 17.3 mph 23.0 mph N/A   Mostly Cloudy
2:35 PM 88.3 °F 96.4 °F 73.2 °F 61% 30.06 in 10.0 mi SE 18.4 mph 21.9 mph N/A   Overcast
2:55 PM 90.5 °F 99.2 °F 73.6 °F 57% 30.05 in 10.0 mi SE 17.3 mph 25.3 mph N/A   Mostly Cloudy
3:15 PM 90.3 °F 99.3 °F 73.6 °F 58% 30.05 in 10.0 mi SE 19.6 mph 24.2 mph N/A   Mostly Cloudy
3:55 PM 90.0 °F 98.5 °F 73.4 °F 58% 30.04 in 10.0 mi SE 17.3 mph 24.2 mph N/A   Scattered Clouds
4:15 PM 90.0 °F 98.5 °F 73.6 °F 58% 30.04 in 10.0 mi SE 20.7 mph 26.5 mph N/A   Scattered Clouds
4:35 PM 89.2 °F 97.9 °F 73.8 °F 60% 30.04 in 10.0 mi ESE 21.9 mph - N/A   Scattered Clouds
4:55 PM 88.3 °F 96.9 °F 73.8 °F 62% 30.04 in 10.0 mi SE 18.4 mph 26.5 mph N/A   Scattered Clouds
5:35 PM 86.2 °F 94.2 °F 73.9 °F 67% 30.05 in 10.0 mi SE 20.7 mph - N/A   Scattered Clouds
6:15 PM 85.3 °F 93.4 °F 74.7 °F 70% 30.05 in 10.0 mi SE 19.6 mph - N/A   Scattered Clouds
6:35 PM 84.4 °F 92.0 °F 74.7 °F 72% 30.05 in 10.0 mi ESE 16.1 mph - N/A   Scattered Clouds
6:55 PM 83.7 °F 91.3 °F 74.8 °F 75% 30.05 in 10.0 mi ESE 19.6 mph 23.0 mph N/A   Scattered Clouds
7:15 PM 83.3 °F 90.8 °F 75.2 °F 76% 30.06 in 10.0 mi ESE 17.3 mph 21.9 mph N/A   Mostly Cloudy
7:35 PM 82.8 °F 89.5 °F 74.7 °F 76% 30.05 in 10.0 mi ESE 19.6 mph - N/A   Mostly Cloudy
7:55 PM 82.6 °F 89.4 °F 74.8 °F 77% 30.06 in 10.0 mi ESE 15.0 mph 19.6 mph N/A   Mostly Cloudy
8:15 PM 82.0 °F 88.6 °F 74.8 °F 79% 30.06 in 10.0 mi ESE 15.0 mph - N/A   Scattered Clouds
8:35 PM 81.7 °F 88.0 °F 74.8 °F 80% 30.07 in 10.0 mi ESE 16.1 mph - N/A   Clear
8:55 PM 81.5 °F 87.8 °F 75.2 °F 81% 30.07 in 10.0 mi ESE 13.8 mph 19.6 mph N/A   Scattered Clouds
9:15 PM 81.5 °F 87.8 °F 75.2 °F 81% 30.07 in 10.0 mi ESE 13.8 mph - N/A   Mostly Cloudy
9:35 PM 81.1 °F 87.2 °F 75.2 °F 82% 30.08 in 10.0 mi ESE 11.5 mph - N/A   Mostly Cloudy
9:55 PM 81.0 °F 86.9 °F 75.2 °F 83% 30.08 in 10.0 mi ESE 11.5 mph - N/A   Scattered Clouds
10:15 PM 80.6 °F 86.0 °F 75.0 °F 83% 30.09 in 10.0 mi SE 11.5 mph - N/A   Clear
11:35 PM 79.7 °F - 74.5 °F 84% 30.10 in 10.0 mi SE 8.1 mph - N/A   Clear
11:55 PM 79.7 °F - 74.3 °F 83% 30.09 in 10.0 mi SE 10.4 mph - N/A   Clear